Regional Weather Roundup
Issued by NWS

Home | Current Version | Previous Version | Text Only | Print | Product List | Glossary On
Versions: 1 2 3 4 5 6 7 8 9 10 11 12 13 14 15 16 17 18 19 20 21 22 23 24 25 26 27 28 29 30 31 32 33 34 35 36 37 38 39 40 41 42 43 44 45 46 47 48 49 50
000
ASUS44 KFWD 020401
RWRTX
NORTH TEXAS HOURLY WEATHER ROUNDUP
NATIONAL WEATHER SERVICE FORT WORTH TX
1100 PM CDT SUN MAY 01 2016

NOTE: "FAIR" INDICATES FEW OR NO CLOUDS BELOW 12,000 FEET WITH NO
SIGNIFICANT WEATHER AND/OR OBSTRUCTIONS TO VISIBILITY.

TXZ118-119-020500-
DALLAS/FORT WORTH METROPLEX

CITY           SKY/WX    TMP DP  RH WIND       PRES   REMARKS
DFW AIRPORT    PTCLDY    66  50  56 N13       30.06R
DALLAS LOVE    PTCLDY    67  49  52 N9        30.06R
FTW MEACHAM    MOCLDY    65  50  58 NW10      30.07R
DAL-EXECUTIVE  CLEAR     65  50  58 N12       30.05R
FTW-ALLIANCE   MOCLDY    62  50  64 N10       30.08R
FTW-NAS-JRB    MOCLDY    66  49  54 N15       30.08R THUNDER
ARLINGTON      CLEAR     69  51  52 N12       30.06R
GRAND PRAIRIE  CLEAR     66  50  56 N13       30.07R
MESQUITE       CLEAR     65  49  56 N12G20    30.05R
LANCASTER      CLEAR     63  51  64 N7        30.05R
$$

TXZ091>094-102>105-117-120-121-131>134-020500-
NORTH CENTRAL TEXAS

CITY           SKY/WX    TMP DP  RH WIND       PRES   REMARKS
DECATUR        CLOUDY    59  47  66 NW8       30.13R
DENTON         CLOUDY    61  51  70 N9        30.08R
MCKINNEY       CLEAR     61  50  67 N9        30.06R
ROCKWALL       CLEAR     63  50  63 N9G23     30.04S
TERRELL        CLEAR     65  51  60 N9        30.04R
WAXAHACHIE     CLEAR     64  53  68 N9        30.05R
GRANBURY       CLOUDY    64  50  59 NW12G17   30.10R
$$

TXZ083>090-098>101-113>116-127>130-139>142-154-155-020500-
WESTERN NORTH TEXAS

CITY           SKY/WX    TMP DP  RH WIND       PRES   REMARKS
WICHITA FALLS  CLOUDY    53  50  89 N9        30.18R
WF-KICKAPOO    CLOUDY    56  49  79 N12       30.19R THUNDER
ABILENE        CLOUDY    54  47  77 N14       30.17R
MINERAL WELLS  CLOUDY    60  48  64 N16       30.11R
STEPHENVILLE   MOCLDY    62  47  58 N10G16    30.12R
COMANCHE       CLOUDY    60  50  69 N10G16    30.11R
COLEMAN        CLOUDY    58  46  63 N17G24    30.13R
$$

TXZ143>147-156>162-174-175-020500-
CENTRAL TEXAS

CITY           SKY/WX    TMP DP  RH WIND       PRES   REMARKS
WACO           MOCLDY    66  53  63 N9        30.03R
WACO-TSTC      CLOUDY    68  55  64 N9        30.03
WACO-MCGREGOR  PTCLDY    67  55  65 N12       30.03R
HILLSBORO      CLOUDY    64  53  67 N9        30.04R
CORSICANA      PTCLDY    67  54  63 N10       30.02R
MEXIA          CLOUDY    65  55  69 N10       29.99R
HEARNE         CLOUDY    67  58  72 NW7       29.99R
TEMPLE         CLOUDY    66  56  70 N9        30.02R
KILLEEN        CLOUDY    65  54  66 N13       30.03R
KILLEEN-SKYLRK CLOUDY    66  53  63 N7        30.03R
FORT HOOD      CLOUDY    66  53  61 N12       30.01R
HAMILTON       CLOUDY    65  50  58 N16       30.07R
$$

TXZ095>097-106>112-122>126-135>138-148>153-164>167-020500-
EAST TEXAS

CITY           SKY/WX    TMP DP  RH WIND       PRES   REMARKS
PARIS          CLEAR     61  45  55 N12       30.04R
MINEOLA        CLOUDY    68  55  64 N10       30.02S
TYLER          PTCLDY    69  55  60 N10       29.99R
LONGVIEW       LGT RAIN  68  62  81 N5        29.97R
PALESTINE      CLOUDY    69  59  72 N5        29.99R
JACKSONVILLE   MOCLDY    70  58  66 N7        30.00R
NACOGDOCHES    MOCLDY    72  66  83 CALM      29.95F
LUFKIN         CLOUDY    71  69  93 E3        29.94S
$$

SUPPLEMENTAL OBSERVATIONS (CENTRAL)

CITY           SKY/WX    TMP DP  RH WIND       PRES   REMARKS
$$

SUPPLEMENTAL OBSERVATIONS (WEST)

CITY           SKY/WX    TMP DP  RH WIND       PRES   REMARKS
$$

SUPPLEMENTAL OBSERVATIONS (EAST)

CITY           SKY/WX    TMP DP  RH WIND       PRES   REMARKS
$$

SUPPLEMENTAL OBSERVATIONS ARE A COLLECTION OF AUTOMATED INSTRUMENTS
THAT ARE MAINTAINED BY A VARIETY OF FEDERAL AND STATE AGENCIES.
CERTAIN ELEMENTS...SUCH AS HUMIDITY VALUES AND SUSTAINED WIND
SPEEDS...MAY BE APPROXIMATED.





USA.gov is the U.S. government's official web portal to all federal, state and local government web resources and services.